Weather History for West Palm Beach, FL

Change the Weather History Date:

Tuesday, January 28, 2014

  Actual Average Record
Temperature  
Mean Temperature 70 °F 66 °F  
Max Temperature 82 °F 75 °F 87 °F (1952)
Min Temperature 58 °F 57 °F 31 °F (1986)
Degree Days  
Heating Degree Days 0 2  
Month to date heating degree days 98 82  
Since 1 July heating degree days 102 153  
Cooling Degree Days 5 4  
Month to date cooling degree days 109 94  
Year to date cooling degree days 109 94  
Growing Degree Days 20 (Base 50)    
Moisture  
Dew Point 64 °F    
Average Humidity 73    
Maximum Humidity 87    
Minimum Humidity 58    
Precipitation  
Precipitation 0.00 in 0.10 in 2.16 in (1924)
Month to date precipitation 6.72 2.86  
Year to date precipitation 6.72 2.86  
Snow  
Snow 0.00 in - - ()
Month to date snowfall 0.0  
Since 1 July snowfall 0.0  
Snow Depth 0.00 in    
Sea Level Pressure  
Sea Level Pressure 30.02 in    
Wind  
Wind Speed 6 mph (South)    
Max Wind Speed 18 mph    
Max Gust Speed 22 mph    
Visibility 9 miles    
Events      
T = Trace of Precipitation, MM = Missing Value Source: NWS Daily Summary

Daily Weather History Graph

Daily Weather History Graph

Search for Another Location

Airport:

Trip Planner

Search our weather history database for the weather conditions in past years. The results will help you decide how hot, cold, wet, or windy it might be!

Date:

Astronomy

Jan. 28, 2014 Rise Set
Actual Time 7:07 AM EST 5:59 PM EST
Civil Twilight 6:42 AM EST 6:24 PM EST
Nautical Twilight 6:14 AM EST 6:52 PM EST
Astronomical Twilight 5:47 AM EST 7:19 PM EST
Moon 4:43 AM EST (1/28) 3:51 PM EST (1/28)
Length of Visible Light 11h 41m
Length of Day
10h 52m
Waning Crescent, 7% of the Moon is Illuminated
Jan 28
Waning Crescent
Jan 30
New
Feb 6
First Quarter
Feb 14
Full
Feb 22
Last Quarter

Hourly Weather History & Observations

Time (EST) Temp. Heat Index Dew Point Humidity Pressure Visibility Wind Dir Wind Speed Gust Speed Precip Events Conditions
12:53 AM 64.9 °F - 60.1 °F 84% 30.02 in 10.0 mi West 3.5 mph - N/A   Clear
1:53 AM 64.0 °F - 60.1 °F 87% 30.02 in 10.0 mi Calm Calm - N/A   Clear
2:53 AM 64.9 °F - 60.6 °F 86% 30.01 in 10.0 mi Calm Calm - N/A   Clear
3:53 AM 64.6 °F - 60.4 °F 86% 30.00 in 10.0 mi Calm Calm - N/A   Clear
4:53 AM 64.9 °F - 60.1 °F 84% 30.00 in 10.0 mi Calm Calm - N/A   Clear
5:53 AM 64.9 °F - 60.1 °F 84% 30.01 in 10.0 mi South 3.5 mph - N/A   Clear
6:53 AM 64.9 °F - 61.0 °F 87% 30.04 in 3.0 mi Calm Calm - N/A   Partly Cloudy
7:53 AM 63.5 °F - 59.5 °F 87% 30.06 in 5.0 mi Calm Calm - N/A   Partly Cloudy
8:53 AM 69.1 °F - 62.1 °F 78% 30.07 in 10.0 mi WSW 4.6 mph - N/A   Partly Cloudy
9:53 AM 75.0 °F - 62.1 °F 64% 30.09 in 10.0 mi West 4.6 mph - N/A   Partly Cloudy
10:53 AM 78.8 °F - 62.6 °F 57% 30.08 in 10.0 mi Variable 6.9 mph - N/A   Partly Cloudy
11:53 AM 79.0 °F - 64.0 °F 60% 30.06 in 10.0 mi South 9.2 mph - N/A   Scattered Clouds
12:53 PM 79.0 °F - 64.0 °F 60% 30.03 in 10.0 mi SSE 9.2 mph - N/A   Scattered Clouds
1:48 PM 80.6 °F 82.3 °F 64.4 °F 58% 30.00 in 10.0 mi SE 15.0 mph - N/A   Scattered Clouds
1:53 PM 81.0 °F 82.5 °F 64.0 °F 56% 30.00 in 10.0 mi SSE 13.8 mph - N/A   Scattered Clouds
2:53 PM 80.1 °F 82.1 °F 66.0 °F 62% 29.97 in 10.0 mi SE 15.0 mph - N/A   Scattered Clouds
3:53 PM 79.0 °F - 66.9 °F 66% 29.97 in 10.0 mi SSE 13.8 mph - N/A   Scattered Clouds
4:53 PM 78.1 °F - 66.9 °F 68% 29.98 in 10.0 mi SSE 10.4 mph - N/A   Partly Cloudy
5:53 PM 75.9 °F - 66.9 °F 74% 29.98 in 10.0 mi SSE 11.5 mph - N/A   Partly Cloudy
6:53 PM 75.0 °F - 66.9 °F 76% 29.99 in 10.0 mi South 8.1 mph - N/A   Partly Cloudy
7:53 PM 75.0 °F - 68.0 °F 79% 30.00 in 10.0 mi South 9.2 mph - N/A   Scattered Clouds
8:53 PM 73.9 °F - 66.9 °F 79% 30.02 in 10.0 mi SSW 5.8 mph - N/A   Partly Cloudy
9:53 PM 72.0 °F - 66.0 °F 81% 30.03 in 10.0 mi SW 5.8 mph - N/A   Partly Cloudy
10:53 PM 70.0 °F - 64.9 °F 84% 30.03 in 10.0 mi SW 3.5 mph - N/A   Partly Cloudy
11:53 PM 69.1 °F - 66.0 °F 90% 30.04 in 10.0 mi SSW 4.6 mph - N/A   Scattered Clouds